ONEWEB-0042, 45441

Orbit data source: Space-Track

ONEWEB-0042, 45441 is a payload satellite owned by One Web (UK) in LEO that was launched on Sat, 21 Mar 2020 UTC via a SOYUZ-2-1B launch vehicle from the Tyuratam Missile And Space Complex (TTMTR). Payload-class satellites include a variety of spacecraft equipped with specific instruments for various scientific and technological missions. These include communications satellites like Starlink; space stations such as the ISS; scientific satellites like the Hubble; Earth observation satellites from companies like Planet Labs, Umbra, and HawkEye 360; GPS; miniature CubeSats for education and research; and military/defense satellites.

Loading next visibility...
Identifier
45441, 2020-020T
Orbit
LEO
Country
Flag of UKUK
Related business
Manufacturer
One Web
Mission
Operational Commercial Communications
Bus & Motor
ARROW, Unknown motor
Mass
148 kg wet, ~140 kg dry
Launch date (UTC)
2020-03-21 (6 years ago)
Launch vehicle
SOYUZ-2-1B
Launch site
Tyuratam Missile And Space Complex (TTMTR)
Object type
Payload
Rocket body
Debris
Shape & HBR
Trap Box + 2 Pan, 6.7 m
Radar Cross Section
3.464 m², Large (>1 m²)

Expand to show TLE details & history
Last TLE update: 19 hours ago

TLE from 19 hours ago
0 ONEWEB-0042
1 45441U 20020T   25286.68425524  .00000292  00000-0  78689-3 0  9995
2 45441  87.8822  70.1418 0001562  90.7243 269.4064 13.11418790270358
Epoch: 2025-10-13T16:25Z
TLE epoch observation values (Epoch: 2025-10-13T16:25:19.652Z)
Latitude
-0.00003°
Longitude
161.32641°
Altitude
1,220.577 km
Speed
7.244 km/s
True Right ascension
04h 40m 34s
True Declination
0° 00' 00"
Sunlit
Object was in full shadow at epoch
Visualization orbit readout
Latitude
Unknown
Longitude
Unknown
Altitude
Unknown
Speed
Unknown
Apparent Right ascension
Unknown
Apparent Declination
Unknown
Sunlit
N/A
Visualization observer readout
Local Sidereal Time
06:13:25
Azimuth
Unknown
Elevation
Unknown
Doppler factor
Unknown
Orbital elements
Apogee altitude
1,215.98 km
Perigee altitude
1,213.608 km
Semi-major axis
7,592.931 km
Eccentricity
0.00016
Inclination
87.8822°
RAAN
70.1418°
Arg. of periapsis
90.7243°
True anomaly
269.3885°
Mean anomaly
269.4064°
Eccentric anomaly
269.39745°
Mean motion
3.28042 °/min
Orbital period
109.74 mins
BSTAR
0.00078689
Loading maneuver chart data...
Computing Atmospheric mass density...
Loading historical data...
Loading historical data...
Loading historical data...
Loading historical data...
Loading historical data...
Loading historical data...
Loading historical data...

Documentation

Showing up to 5 results
|